M I D A S
Marine Information and Data Acquisition System
Tripno 1180 of the Zeeleeuw from 2006-12-19 07:30:20 to 2006-12-19 15:50:48
Back to CruiseResearch ActivitiesStationsMapUnderway DataData graphs

EquipmentUnitsComment
TimeDGPSUTC
LatitudeDGPSDM.mWGS84
LongitudeDGPSDM.mWGS84
HeadingGyrodeg 
SOGDGPSknotsSpeed over ground
COGDGPSdegCourse over ground
DepthEcho soundermeters200 kHz
Missing or incorrect values are displayed as -999
Navigation data collected by the RV Zeeleeuw from 2006-12-19 07:30:50 to 2006-12-19 16:02:29
                                                                                    Next 1000 lines
Time Latitude Longitude Heading SOG COG Depth
2006-12-19 07:31:00 51°13.601 2°56.095 111.2 0.9 287 6.8
2006-12-19 07:31:04 51°13.602 2°56.093 111 1.1 289 6.9
2006-12-19 07:31:10 51°13.602 2°56.09 111 1.4 293 6.9
2006-12-19 07:31:15 51°13.603 2°56.086 111 1.6 291 7
2006-12-19 07:31:20 51°13.604 2°56.082 111 1.9 295 -999
2006-12-19 07:31:26 51°13.605 2°56.076 111 2 291 -999
2006-12-19 07:31:32 51°13.606 2°56.07 110.6 2.2 295 -999
2006-12-19 07:31:36 51°13.606 2°56.065 110.3 2.4 290 -999
2006-12-19 07:31:43 51°13.607 2°56.058 109.9 2.5 288 -999
2006-12-19 07:31:48 51°13.608 2°56.053 109.5 2.6 289 -999
2006-12-19 07:31:52 51°13.609 2°56.048 109.4 2.7 289 -999
2006-12-19 07:31:58 51°13.61 2°56.041 109.2 2.8 285 -999
2006-12-19 07:32:03 51°13.612 2°56.035 109.2 2.9 287 -999
2006-12-19 07:32:08 51°13.613 2°56.029 109.3 3 287 -999
2006-12-19 07:32:12 51°13.614 2°56.024 109.5 3.1 287 -999
2006-12-19 07:32:18 51°13.616 2°56.015 109.8 3.3 289 -999
2006-12-19 07:32:23 51°13.618 2°56.008 110.4 3.5 288 -999
2006-12-19 07:32:28 51°13.619 2°56.001 111 3.4 286 -999
2006-12-19 07:32:32 51°13.62 2°55.996 111.5 3.3 289 -999
2006-12-19 07:32:38 51°13.622 2°55.988 111.8 3.2 289 -999
2006-12-19 07:32:42 51°13.623 2°55.982 112.3 3.1 289 -999
2006-12-19 07:32:48 51°13.625 2°55.975 112.6 3 287 -999
2006-12-19 07:32:52 51°13.626 2°55.97 112.7 2.8 289 -999
2006-12-19 07:32:58 51°13.628 2°55.964 113.1 2.6 288 -999
2006-12-19 07:33:02 51°13.628 2°55.961 113.5 2.2 290 9.2
2006-12-19 07:33:08 51°13.629 2°55.956 114.2 1.9 287 9.1
2006-12-19 07:33:12 51°13.629 2°55.953 114.9 1.5 288 9.2
2006-12-19 07:33:18 51°13.63 2°55.95 115.8 1.2 286 9
2006-12-19 07:33:22 51°13.63 2°55.949 117.3 0.8 291 9.2
2006-12-19 07:33:26 51°13.63 2°55.948 119 0.6 282 9.2
2006-12-19 07:33:32 51°13.63 2°55.946 120.6 0.7 289 9.1
2006-12-19 07:33:36 51°13.631 2°55.945 121.6 1 296 9.2
2006-12-19 07:33:42 51°13.632 2°55.941 122.2 1.5 294 9
2006-12-19 07:33:46 51°13.633 2°55.938 122.5 1.8 298 9.1
2006-12-19 07:33:52 51°13.634 2°55.934 122.5 2 297 9.1
2006-12-19 07:33:56 51°13.636 2°55.93 122.5 2.3 299 9
2006-12-19 07:34:02 51°13.638 2°55.924 122.8 2.6 299 -999
2006-12-19 07:34:08 51°13.64 2°55.918 123.8 2.8 302 -999
2006-12-19 07:34:12 51°13.642 2°55.913 125.7 3 302 -999
2006-12-19 07:34:18 51°13.645 2°55.906 127.3 3.3 306 -999
2006-12-19 07:34:22 51°13.647 2°55.901 128.3 3.5 305 -999
2006-12-19 07:34:28 51°13.65 2°55.893 129.2 3.6 306 -999
2006-12-19 07:34:32 51°13.653 2°55.887 129.9 3.7 307 -999
2006-12-19 07:34:38 51°13.656 2°55.879 130.6 3.9 309 -999
2006-12-19 07:34:42 51°13.659 2°55.874 131 4 308 -999
2006-12-19 07:34:48 51°13.663 2°55.865 131.1 4.1 309 -999
2006-12-19 07:34:52 51°13.666 2°55.859 131.1 4.1 308 -999
2006-12-19 07:34:58 51°13.67 2°55.85 130.8 4.2 308 -999
2006-12-19 07:35:02 51°13.673 2°55.844 130.6 4.3 307 -999
2006-12-19 07:35:08 51°13.678 2°55.835 130.6 4.6 308 -999
2006-12-19 07:35:12 51°13.681 2°55.828 130.6 4.7 308 -999
2006-12-19 07:35:18 51°13.686 2°55.819 130.6 4.6 309 -999
2006-12-19 07:35:22 51°13.689 2°55.812 130.6 4.6 307 -999
2006-12-19 07:35:28 51°13.694 2°55.803 130.6 4.6 308 -999
2006-12-19 07:35:32 51°13.697 2°55.796 130.6 4.5 307 -999
2006-12-19 07:35:38 51°13.702 2°55.787 130.6 4.6 307 -999
2006-12-19 07:35:42 51°13.705 2°55.78 130.4 4.9 308 -999
2006-12-19 07:35:48 51°13.71 2°55.77 130.2 4.9 309 -999
2006-12-19 07:35:54 51°13.715 2°55.76 130 4.6 308 -999
2006-12-19 07:35:58 51°13.718 2°55.754 129.6 4.4 308 -999
2006-12-19 07:36:02 51°13.721 2°55.748 129.3 4 308 -999
2006-12-19 07:36:08 51°13.724 2°55.741 128.9 3.7 308 -999
2006-12-19 07:36:12 51°13.726 2°55.736 128 3 305 -999
2006-12-19 07:36:18 51°13.729 2°55.731 126.4 2.4 308 6.1
2006-12-19 07:36:22 51°13.73 2°55.728 124.8 1.9 308 10.7
2006-12-19 07:36:28 51°13.732 2°55.725 123.2 1.6 308 10.7
2006-12-19 07:36:32 51°13.732 2°55.723 121.1 0.8 310 10.5
2006-12-19 07:36:38 51°13.733 2°55.723 118.1 0.6 320 10.6
2006-12-19 07:36:43 51°13.734 2°55.723 113.8 0.3 3 10.4
2006-12-19 07:36:48 51°13.734 2°55.724 109.2 0.5 54 10.1
2006-12-19 07:36:52 51°13.735 2°55.725 104.5 0.8 65 10
2006-12-19 07:36:56 51°13.735 2°55.727 99.3 1 70 10.4
2006-12-19 07:37:03 51°13.736 2°55.73 93.7 0.9 62 10.7
2006-12-19 07:37:07 51°13.736 2°55.731 88.3 0.7 58 10.7
2006-12-19 07:37:12 51°13.736 2°55.731 84.5 0.4 54 10.3
2006-12-19 07:37:16 51°13.736 2°55.731 81.2 0.3 341 10.2
2006-12-19 07:37:22 51°13.736 2°55.729 77.9 0.5 283 10.1
2006-12-19 07:37:26 51°13.736 2°55.728 74.7 0.8 265 10.3
2006-12-19 07:37:32 51°13.736 2°55.725 72.3 1.2 257 10.6
2006-12-19 07:37:36 51°13.735 2°55.722 70.3 1.5 255 10.7
2006-12-19 07:37:42 51°13.734 2°55.717 68.3 1.9 251 10.1
2006-12-19 07:37:46 51°13.733 2°55.714 66 2 250 -999
2006-12-19 07:37:52 51°13.732 2°55.709 63.8 1.8 248 -999
2006-12-19 07:37:58 51°13.731 2°55.705 62.4 1.6 249 -999
2006-12-19 07:38:02 51°13.731 2°55.703 61.1 1.2 248 -999
2006-12-19 07:38:08 51°13.73 2°55.701 59.4 0.8 255 -999
2006-12-19 07:38:12 51°13.73 2°55.7 57.4 0.4 274 10.8
2006-12-19 07:38:18 51°13.731 2°55.7 55 0.3 340 11
2006-12-19 07:38:22 51°13.731 2°55.7 52.2 0.5 18 10.9
2006-12-19 07:38:28 51°13.732 2°55.701 48.1 0.8 26 10.8
2006-12-19 07:38:32 51°13.733 2°55.702 43.9 0.9 29 10.5
2006-12-19 07:38:38 51°13.734 2°55.703 39.3 0.8 18 10.5
2006-12-19 07:38:42 51°13.735 2°55.703 35.3 0.4 30 10.5
2006-12-19 07:38:48 51°13.735 2°55.703 32.9 0.1 280 10.5
2006-12-19 07:38:52 51°13.734 2°55.702 30.8 0.5 202 10.5
2006-12-19 07:38:58 51°13.732 2°55.701 28.6 1 206 10.4
2006-12-19 07:39:03 51°13.731 2°55.7 26.7 1.1 203 10.1
2006-12-19 07:39:07 51°13.73 2°55.699 25.4 1 202 10.7
2006-12-19 07:39:12 51°13.729 2°55.698 24.7 0.8 208 10.9
2006-12-19 07:39:16 51°13.728 2°55.698 24.3 0.4 207 10.9
2006-12-19 07:39:23 51°13.729 2°55.698 23 0.3 352 -999
2006-12-19 07:39:28 51°13.73 2°55.698 19.3 0.7 7 -999
2006-12-19 07:39:32 51°13.731 2°55.698 14.3 1 2 5.4
2006-12-19 07:39:38 51°13.733 2°55.698 10.1 1.2 356 5.6
2006-12-19 07:39:43 51°13.735 2°55.698 5.8 1.4 352 10.8
2006-12-19 07:39:48 51°13.738 2°55.697 0.5 1.6 348 10.5
2006-12-19 07:39:52 51°13.74 2°55.695 356.3 1.8 341 10.4
2006-12-19 07:39:58 51°13.743 2°55.693 351 2 338 10.3
2006-12-19 07:40:03 51°13.746 2°55.691 346 2.2 334 10.3
2006-12-19 07:40:08 51°13.749 2°55.689 342 2.4 333 10.3
2006-12-19 07:40:12 51°13.752 2°55.686 339.6 2.6 331 10.2
2006-12-19 07:40:17 51°13.755 2°55.683 338.3 2.8 332 10.4
2006-12-19 07:40:22 51°13.758 2°55.68 338.1 3 332 10.4
2006-12-19 07:40:27 51°13.762 2°55.677 339 3.2 334 10.4
2006-12-19 07:40:32 51°13.767 2°55.674 340.9 3.4 337 10.3
2006-12-19 07:40:36 51°13.771 2°55.671 342.7 3.6 339 10.3
2006-12-19 07:40:42 51°13.777 2°55.668 344.3 3.8 341 10.3
2006-12-19 07:40:47 51°13.782 2°55.665 345.3 4.1 342 9.9
2006-12-19 07:40:52 51°13.788 2°55.662 345.5 4.3 341 10.3
2006-12-19 07:40:56 51°13.792 2°55.659 345.4 4.4 340 10.1
2006-12-19 07:41:02 51°13.799 2°55.654 345.2 4.6 339 10.2
2006-12-19 07:41:06 51°13.804 2°55.651 344.7 4.8 339 10.2
2006-12-19 07:41:11 51°13.81 2°55.647 344.7 4.9 340 10.3
2006-12-19 07:41:16 51°13.817 2°55.644 344.7 5 340 10.2
2006-12-19 07:41:20 51°13.822 2°55.641 344.6 5.1 341 9.9
2006-12-19 07:41:26 51°13.83 2°55.636 344.2 5.2 340 9.8
2006-12-19 07:41:30 51°13.836 2°55.632 343.8 5.3 339 9.8
2006-12-19 07:41:36 51°13.844 2°55.627 342.5 5.3 337 10
2006-12-19 07:41:40 51°13.849 2°55.623 340.7 5.3 335 10.2
2006-12-19 07:41:46 51°13.857 2°55.617 339.3 5.4 335 10
2006-12-19 07:41:51 51°13.864 2°55.611 338.8 5.4 335 9.9
2006-12-19 07:41:55 51°13.869 2°55.607 338.7 5.4 335 9.4
2006-12-19 07:42:00 51°13.876 2°55.602 339.1 5.4 335 9.7
2006-12-19 07:42:04 51°13.882 2°55.598 339.7 5.5 336 9.9
2006-12-19 07:42:10 51°13.89 2°55.592 340 5.5 335 9.8
2006-12-19 07:42:15 51°13.896 2°55.587 340 5.5 335 9.6
2006-12-19 07:42:20 51°13.903 2°55.581 339.9 5.5 335 10
2006-12-19 07:42:25 51°13.911 2°55.577 339.6 5.5 335 10
2006-12-19 07:42:30 51°13.918 2°55.571 339.5 5.5 335 10
2006-12-19 07:42:35 51°13.925 2°55.566 339.5 5.5 335 10.1
2006-12-19 07:42:40 51°13.932 2°55.561 339.6 5.5 335 10.1
2006-12-19 07:42:44 51°13.937 2°55.557 339.7 5.6 335 10.1
2006-12-19 07:42:48 51°13.943 2°55.553 339.7 5.6 335 10.1
2006-12-19 07:42:55 51°13.953 2°55.545 339.7 5.6 335 10.1
2006-12-19 07:43:00 51°13.96 2°55.54 339.7 5.6 336 10.1
2006-12-19 07:43:05 51°13.966 2°55.535 340 5.6 336 10.1
2006-12-19 07:43:08 51°13.97 2°55.532 340.8 5.5 336 10
2006-12-19 07:43:15 51°13.979 2°55.525 341.7 5.5 336 10.1
2006-12-19 07:43:20 51°13.986 2°55.519 342.3 5.5 337 10.1
2006-12-19 07:43:25 51°13.995 2°55.515 342 5.6 337 10.1
2006-12-19 07:43:30 51°14.003 2°55.511 341.1 5.6 336 10.1
2006-12-19 07:43:35 51°14.009 2°55.506 340.2 5.5 336 10.1
2006-12-19 07:43:40 51°14.016 2°55.502 339.5 5.5 336 10.2
2006-12-19 07:43:44 51°14.021 2°55.497 338.9 5.5 335 10.2
2006-12-19 07:43:50 51°14.03 2°55.491 338.8 5.5 335 10.1
2006-12-19 07:43:54 51°14.035 2°55.487 338.6 5.5 335 10.2
2006-12-19 07:44:00 51°14.044 2°55.481 338.6 5.5 335 10.3
2006-12-19 07:44:05 51°14.051 2°55.476 338.9 5.5 336 10.3
2006-12-19 07:44:10 51°14.058 2°55.471 339.5 5.5 336 -999
2006-12-19 07:44:14 51°14.063 2°55.467 339.8 5.5 336 10.2
2006-12-19 07:44:20 51°14.072 2°55.461 340 5.6 336 10.3
2006-12-19 07:44:24 51°14.077 2°55.457 339.8 5.6 336 10.3
2006-12-19 07:44:31 51°14.087 2°55.449 339 5.5 334 10.2
2006-12-19 07:44:36 51°14.094 2°55.444 338.6 5.5 334 10.3
2006-12-19 07:44:40 51°14.099 2°55.44 338.2 5.5 334 -999
2006-12-19 07:44:46 51°14.107 2°55.433 338 5.5 334 -999
2006-12-19 07:44:52 51°14.115 2°55.426 337.9 5.5 333 10.2
2006-12-19 07:44:56 51°14.121 2°55.422 337.9 5.5 333 -999
2006-12-19 07:45:03 51°14.13 2°55.415 338.1 5.5 334 -999
2006-12-19 07:45:08 51°14.137 2°55.409 338.2 5.5 333 -999
2006-12-19 07:45:12 51°14.143 2°55.405 337.6 5.5 333 -999
2006-12-19 07:45:18 51°14.151 2°55.398 336.8 5.5 332 -999
2006-12-19 07:45:23 51°14.158 2°55.392 336 5.5 331 -999
2006-12-19 07:45:28 51°14.164 2°55.386 335.2 5.5 330 10.2
2006-12-19 07:45:32 51°14.169 2°55.381 334.3 5.5 330 10.2
2006-12-19 07:45:38 51°14.177 2°55.374 333.5 5.5 329 10.8
2006-12-19 07:45:42 51°14.182 2°55.368 332.6 5.5 327 10.3
2006-12-19 07:45:48 51°14.19 2°55.36 331.5 5.5 326 10.9
2006-12-19 07:45:52 51°14.195 2°55.355 329.9 5.4 325 -999
2006-12-19 07:45:58 51°14.202 2°55.345 328.6 5.5 323 11
2006-12-19 07:46:03 51°14.208 2°55.338 327.2 5.5 322 10.7
2006-12-19 07:46:08 51°14.214 2°55.33 326.1 5.5 320 10.3
2006-12-19 07:46:12 51°14.219 2°55.324 324.6 5.4 319 10.4
2006-12-19 07:46:18 51°14.225 2°55.314 322.8 5.4 317 10.1
2006-12-19 07:46:23 51°14.231 2°55.305 321.1 5.5 316 10.1
2006-12-19 07:46:28 51°14.236 2°55.297 319.8 5.5 315 10.1
2006-12-19 07:46:32 51°14.24 2°55.289 318.5 5.6 314 10.5
2006-12-19 07:46:37 51°14.246 2°55.28 317.2 5.6 313 10.5
2006-12-19 07:46:42 51°14.251 2°55.271 316.6 5.7 312 10.1
2006-12-19 07:46:47 51°14.256 2°55.261 316.2 5.7 312 10.3
2006-12-19 07:46:52 51°14.261 2°55.251 315.7 5.8 311 10
2006-12-19 07:46:56 51°14.265 2°55.243 315 5.8 310 9.9
2006-12-19 07:47:02 51°14.271 2°55.232 314.5 5.8 310 9.8
2006-12-19 07:47:07 51°14.277 2°55.222 314.2 5.9 310 10
2006-12-19 07:47:12 51°14.282 2°55.212 314.2 5.9 310 9.9
2006-12-19 07:47:16 51°14.286 2°55.203 314.2 6 310 9.8
2006-12-19 07:47:22 51°14.293 2°55.191 314.5 6.3 310 9.9
2006-12-19 07:47:26 51°14.298 2°55.182 314.6 6.4 311 10
2006-12-19 07:47:31 51°14.304 2°55.171 314.6 6.5 311 10.2
2006-12-19 07:47:36 51°14.31 2°55.16 314.6 6.6 311 10.1
2006-12-19 07:47:40 51°14.315 2°55.151 314.6 6.7 311 9.9
2006-12-19 07:47:46 51°14.322 2°55.137 314.4 6.8 310 10.2
2006-12-19 07:47:50 51°14.327 2°55.127 314.4 7 310 9.8
2006-12-19 07:47:56 51°14.334 2°55.113 314.4 7 310 9.6
2006-12-19 07:48:00 51°14.339 2°55.103 314.3 7.1 310 10.1
2006-12-19 07:48:06 51°14.347 2°55.088 314.2 7.1 310 10.3
2006-12-19 07:48:10 51°14.352 2°55.078 314.2 7.2 309 10.5
2006-12-19 07:48:14 51°14.357 2°55.068 314.2 7.4 309 9.9
2006-12-19 07:48:21 51°14.366 2°55.049 314.2 7.7 308 10
2006-12-19 07:48:25 51°14.372 2°55.038 314 7.9 308 10.1
2006-12-19 07:48:30 51°14.378 2°55.024 312.9 8 305 9.9
2006-12-19 07:48:34 51°14.383 2°55.011 311.1 8.2 302 9.9
2006-12-19 07:48:40 51°14.39 2°54.992 307.4 8.4 298 10
2006-12-19 07:48:44 51°14.394 2°54.978 305.1 8.6 297 10
2006-12-19 07:48:50 51°14.4 2°54.957 302.5 8.8 295 10.1
2006-12-19 07:48:55 51°14.405 2°54.939 301.4 8.9 294 10.1
2006-12-19 07:48:59 51°14.409 2°54.924 300.8 9.1 294 10.3
2006-12-19 07:49:04 51°14.414 2°54.905 300.4 9.3 293 10.5
2006-12-19 07:49:10 51°14.42 2°54.882 299.9 9.4 292 11
2006-12-19 07:49:14 51°14.424 2°54.867 299 9.5 292 10.4
2006-12-19 07:49:19 51°14.429 2°54.847 298.3 9.6 292 10.3
2006-12-19 07:49:24 51°14.434 2°54.828 298.4 9.5 293 10.4
2006-12-19 07:49:30 51°14.441 2°54.804 300.6 9.7 295 10.3
2006-12-19 07:49:34 51°14.445 2°54.789 302 9.7 296 10.2
2006-12-19 07:49:40 51°14.452 2°54.766 302.9 9.7 296 10.1
2006-12-19 07:49:44 51°14.457 2°54.751 303.5 9.7 297 10.1
2006-12-19 07:49:48 51°14.462 2°54.735 304.1 9.8 297 10.3
2006-12-19 07:49:54 51°14.469 2°54.712 304 9.8 296 10.2
2006-12-19 07:49:59 51°14.474 2°54.692 302 9.9 292 10.6
2006-12-19 07:50:04 51°14.479 2°54.671 299 10.1 289 10.6
2006-12-19 07:50:08 51°14.482 2°54.653 295.6 10.2 286 10.2
2006-12-19 07:50:14 51°14.486 2°54.626 291.9 10.4 282 10.2
2006-12-19 07:50:20 51°14.488 2°54.598 287.1 10.6 279 10.1
2006-12-19 07:50:24 51°14.489 2°54.58 284.4 10.7 277 10.1
2006-12-19 07:50:29 51°14.491 2°54.556 282.2 10.9 275 10.2
2006-12-19 07:50:34 51°14.492 2°54.532 281.4 11 275 10
2006-12-19 07:50:40 51°14.494 2°54.503 280.6 11.1 274 10
2006-12-19 07:50:44 51°14.494 2°54.483 279.7 11.1 274 10.1
2006-12-19 07:50:49 51°14.495 2°54.458 279.3 11.2 274 10.1
2006-12-19 07:50:54 51°14.496 2°54.433 279.8 11.3 274 10.4
2006-12-19 07:50:59 51°14.497 2°54.408 279.6 11.3 272 10.2
2006-12-19 07:51:04 51°14.497 2°54.383 278.6 11.3 271 10.2
2006-12-19 07:51:09 51°14.496 2°54.358 275.2 11.3 265 10.6
2006-12-19 07:51:14 51°14.493 2°54.334 270 11.2 261 10.4
2006-12-19 07:51:19 51°14.489 2°54.31 264.5 11.2 256 10.3
2006-12-19 07:51:24 51°14.484 2°54.286 259 11.2 251 10.4
2006-12-19 07:51:29 51°14.478 2°54.263 254.2 11.3 248 10.7
2006-12-19 07:51:34 51°14.471 2°54.24 251.3 11.3 246 9.8
2006-12-19 07:51:39 51°14.464 2°54.218 249.3 11.3 244 9.6
2006-12-19 07:51:43 51°14.458 2°54.2 247.7 11.3 242 9.5
2006-12-19 07:51:49 51°14.449 2°54.174 245.5 11.4 240 9.4
2006-12-19 07:51:54 51°14.44 2°54.153 243.6 11.5 238 9.3
2006-12-19 07:51:59 51°14.431 2°54.131 241.6 11.6 237 9.3
2006-12-19 07:52:03 51°14.424 2°54.114 240.2 11.7 236 9.2
2006-12-19 07:52:09 51°14.413 2°54.088 238.7 11.9 235 9.3
2006-12-19 07:52:14 51°14.403 2°54.067 237.7 12 233 9.2
2006-12-19 07:52:20 51°14.391 2°54.04 237.2 12.1 235 9.3
2006-12-19 07:52:24 51°14.383 2°54.023 237.9 12.2 235 9.3
2006-12-19 07:52:29 51°14.374 2°54 238.7 12.3 237 9.3
2006-12-19 07:52:33 51°14.367 2°53.981 240.8 12.3 238 9.2
2006-12-19 07:52:39 51°14.356 2°53.954 240.9 12.4 237 9.3
2006-12-19 07:52:44 51°14.347 2°53.931 241 12.5 236 9.3
2006-12-19 07:52:48 51°14.34 2°53.912 240.4 12.5 238 9.2
2006-12-19 07:52:54 51°14.328 2°53.884 240.2 12.6 236 9.2
2006-12-19 07:52:59 51°14.318 2°53.861 240.1 12.6 236 9.2
2006-12-19 07:53:04 51°14.308 2°53.838 239.3 12.7 235 9.2
2006-12-19 07:53:09 51°14.298 2°53.815 239.7 12.7 237 9.3
2006-12-19 07:53:13 51°14.29 2°53.797 239.2 12.7 235 9.2
2006-12-19 07:53:19 51°14.278 2°53.768 239.5 12.7 236 9.2
2006-12-19 07:53:24 51°14.268 2°53.745 239.5 12.8 236 9.2
2006-12-19 07:53:29 51°14.258 2°53.721 239.7 12.8 236 9.2
2006-12-19 07:53:34 51°14.248 2°53.698 239.4 12.8 237 9.3
2006-12-19 07:53:39 51°14.238 2°53.675 239.6 12.8 235 9.2
2006-12-19 07:53:44 51°14.229 2°53.651 239.5 12.8 237 9.3
2006-12-19 07:53:49 51°14.219 2°53.628 239.4 12.8 236 9.3
2006-12-19 07:53:54 51°14.208 2°53.604 239.5 12.9 236 9.3
2006-12-19 07:53:59 51°14.199 2°53.581 239.8 12.8 236 9.3
2006-12-19 07:54:03 51°14.19 2°53.562 239.6 12.8 235 9.3
2006-12-19 07:54:09 51°14.178 2°53.534 239.5 12.8 236 9.3
2006-12-19 07:54:14 51°14.168 2°53.511 239.5 12.8 235 9.4
2006-12-19 07:54:19 51°14.159 2°53.487 239.4 12.8 237 9.4
2006-12-19 07:54:24 51°14.148 2°53.464 239.7 12.8 235 9.4
2006-12-19 07:54:28 51°14.141 2°53.445 239.6 12.9 236 9.5
2006-12-19 07:54:34 51°14.129 2°53.416 239.8 12.9 236 9.4
2006-12-19 07:54:40 51°14.117 2°53.388 239.9 12.9 236 9.5
2006-12-19 07:54:44 51°14.109 2°53.369 240.2 12.9 236 9.5
2006-12-19 07:54:49 51°14.098 2°53.345 240 13 236 9.5
2006-12-19 07:54:54 51°14.089 2°53.321 240.2 12.9 237 9.5
2006-12-19 07:54:59 51°14.079 2°53.298 240.1 12.9 236 9.5
2006-12-19 07:55:04 51°14.069 2°53.274 240.1 12.9 237 9.5
2006-12-19 07:55:09 51°14.059 2°53.25 240.3 13 237 9.5
2006-12-19 07:55:14 51°14.049 2°53.226 240.4 12.9 237 9.6
2006-12-19 07:55:19 51°14.039 2°53.202 240.8 12.9 236 9.6
2006-12-19 07:55:24 51°14.029 2°53.179 240.2 13 237 9.6
2006-12-19 07:55:29 51°14.019 2°53.155 240.4 12.9 236 9.7
2006-12-19 07:55:33 51°14.011 2°53.136 240.4 12.9 237 9.6
2006-12-19 07:55:39 51°14 2°53.107 240.8 12.9 237 9.7
2006-12-19 07:55:44 51°13.99 2°53.083 240.8 13 236 9.7
2006-12-19 07:55:49 51°13.98 2°53.059 240.4 12.9 237 9.8
2006-12-19 07:55:54 51°13.97 2°53.035 240.6 12.9 236 9.8
2006-12-19 07:55:59 51°13.961 2°53.011 240.3 13 238 9.8
2006-12-19 07:56:03 51°13.952 2°52.992 240.7 12.9 236 9.8
2006-12-19 07:56:09 51°13.941 2°52.963 240.9 12.9 238 9.8
2006-12-19 07:56:14 51°13.931 2°52.939 240.4 13 237 9.8
2006-12-19 07:56:19 51°13.921 2°52.915 240.9 13.1 237 9.9
2006-12-19 07:56:23 51°13.913 2°52.896 240.8 13.1 237 9.8
2006-12-19 07:56:29 51°13.901 2°52.866 240.7 13.2 236 9.8
2006-12-19 07:56:34 51°13.891 2°52.842 240.6 13.3 237 9.8
2006-12-19 07:56:39 51°13.88 2°52.817 240.8 13.3 236 9.9
2006-12-19 07:56:44 51°13.87 2°52.792 240.6 13.3 237 9.9
2006-12-19 07:56:48 51°13.862 2°52.773 240.6 13.4 236 9.9
2006-12-19 07:56:54 51°13.85 2°52.743 240.9 13.4 237 9.9
2006-12-19 07:56:59 51°13.84 2°52.718 240.9 13.4 237 9.9
2006-12-19 07:57:04 51°13.83 2°52.693 240.9 13.5 236 9.8
2006-12-19 07:57:09 51°13.82 2°52.668 241.2 13.5 238 9.9
2006-12-19 07:57:14 51°13.809 2°52.643 241.1 13.5 236 9.9
2006-12-19 07:57:19 51°13.799 2°52.618 240.9 13.5 237 9.9
2006-12-19 07:57:23 51°13.791 2°52.598 240.9 13.5 237 9.9
2006-12-19 07:57:29 51°13.779 2°52.568 241.2 13.5 237 9.9
2006-12-19 07:57:34 51°13.768 2°52.543 241 13.5 237 9.9
2006-12-19 07:57:39 51°13.758 2°52.517 241.3 13.5 238 9.9
2006-12-19 07:57:44 51°13.748 2°52.493 241.4 13.6 237 10
2006-12-19 07:57:49 51°13.738 2°52.467 241.4 13.5 237 10
2006-12-19 07:57:54 51°13.727 2°52.442 241.1 13.5 237 10
2006-12-19 07:58:00 51°13.715 2°52.412 240.9 13.6 237 9.9
2006-12-19 07:58:04 51°13.707 2°52.392 240.8 13.6 237 10
2006-12-19 07:58:09 51°13.696 2°52.367 240.8 13.5 236 10
2006-12-19 07:58:13 51°13.688 2°52.347 240.9 13.5 237 10
2006-12-19 07:58:19 51°13.676 2°52.317 240.8 13.6 237 10
2006-12-19 07:58:24 51°13.666 2°52.292 241 13.5 237 10
2006-12-19 07:58:29 51°13.655 2°52.267 241 13.6 237 10.1
2006-12-19 07:58:34 51°13.645 2°52.241 241.1 13.5 238 10.1
2006-12-19 07:58:39 51°13.635 2°52.217 241 13.5 236 10
2006-12-19 07:58:43 51°13.627 2°52.196 240.5 13.6 238 10
2006-12-19 07:58:50 51°13.612 2°52.161 241 13.6 236 10.1
2006-12-19 07:58:54 51°13.604 2°52.141 240.6 13.6 237 10.1
2006-12-19 07:58:59 51°13.594 2°52.116 240.4 13.6 236 10.1
2006-12-19 07:59:03 51°13.586 2°52.096 240.9 13.5 238 10.1
2006-12-19 07:59:09 51°13.573 2°52.067 240.9 13.5 236 10
2006-12-19 07:59:14 51°13.563 2°52.041 240.9 13.5 238 10.1
2006-12-19 07:59:19 51°13.553 2°52.017 241 13.5 236 10.1
2006-12-19 07:59:24 51°13.543 2°51.991 240.4 13.5 238 10.1
2006-12-19 07:59:29 51°13.532 2°51.966 240.9 13.5 236 10.1
2006-12-19 07:59:34 51°13.523 2°51.941 241 13.5 238 10.1
2006-12-19 07:59:39 51°13.512 2°51.916 240.9 13.5 237 10.2
2006-12-19 07:59:43 51°13.504 2°51.895 241.2 13.5 238 10.2
2006-12-19 07:59:49 51°13.492 2°51.865 241.2 13.5 237 10.2
2006-12-19 07:59:54 51°13.482 2°51.84 241.2 13.5 238 10.2
2006-12-19 07:59:59 51°13.472 2°51.815 241.2 13.5 237 10.2
2006-12-19 08:00:03 51°13.464 2°51.794 240.9 13.5 238 10.2
2006-12-19 08:00:09 51°13.452 2°51.764 241.1 13.5 237 10.2
2006-12-19 08:00:14 51°13.442 2°51.739 241.1 13.5 237 10.2
2006-12-19 08:00:19 51°13.431 2°51.714 240.9 13.6 237 10.3
2006-12-19 08:00:24 51°13.421 2°51.688 240.7 13.8 238 10.2
2006-12-19 08:00:29 51°13.411 2°51.662 240.8 13.9 237 10.3
2006-12-19 08:00:34 51°13.401 2°51.636 241.3 14 238 10.2
2006-12-19 08:00:39 51°13.39 2°51.61 241.6 14 237 10.2
2006-12-19 08:00:43 51°13.381 2°51.589 241.1 14.1 238 10.2
2006-12-19 08:00:49 51°13.369 2°51.557 241.9 14.1 238 10.2
2006-12-19 08:00:54 51°13.358 2°51.531 240.8 14.3 237 10.2
2006-12-19 08:00:59 51°13.348 2°51.503 241.9 14.2 239 10.1
2006-12-19 08:01:04 51°13.336 2°51.477 241 14.4 236 10.1
2006-12-19 08:01:09 51°13.327 2°51.45 241.6 14.3 240 10.2
2006-12-19 08:01:14 51°13.315 2°51.424 241.2 14.4 236 10.1
2006-12-19 08:01:19 51°13.305 2°51.396 241.4 14.4 240 10.2
2006-12-19 08:01:24 51°13.294 2°51.37 241.7 14.4 236 10.1
2006-12-19 08:01:29 51°13.284 2°51.342 241 14.5 239 10.1
2006-12-19 08:01:34 51°13.273 2°51.315 241.6 14.4 237 10.2
2006-12-19 08:01:39 51°13.262 2°51.288 240.9 14.5 238 10.1
2006-12-19 08:01:44 51°13.252 2°51.261 241 14.5 237 10.2
2006-12-19 08:01:49 51°13.241 2°51.234 241.3 14.4 238 10.2
2006-12-19 08:01:54 51°13.23 2°51.207 241.3 14.4 238 10.2
2006-12-19 08:01:59 51°13.219 2°51.18 241.3 14.6 237 10.2
2006-12-19 08:02:04 51°13.209 2°51.153 241.6 14.5 238 10.2
2006-12-19 08:02:09 51°13.198 2°51.126 241.6 14.5 238 10.3
2006-12-19 08:02:14 51°13.187 2°51.099 241.3 14.6 237 10.2
2006-12-19 08:02:18 51°13.178 2°51.077 241.3 14.6 239 10.3
2006-12-19 08:02:23 51°13.168 2°51.05 241.6 14.5 236 10.2
2006-12-19 08:02:29 51°13.155 2°51.017 240.9 14.6 239 10.2
2006-12-19 08:02:34 51°13.144 2°50.99 241.2 14.6 237 10.3
2006-12-19 08:02:39 51°13.134 2°50.962 241.4 14.5 239 10.2
2006-12-19 08:02:44 51°13.123 2°50.935 241.5 14.6 238 10.3
2006-12-19 08:02:49 51°13.112 2°50.908 241.6 14.5 238 10.3
2006-12-19 08:02:54 51°13.101 2°50.881 241.5 14.5 239 10.3
2006-12-19 08:02:59 51°13.09 2°50.854 241.4 14.6 237 10.2
2006-12-19 08:03:04 51°13.08 2°50.826 241.9 14.5 240 10.3
2006-12-19 08:03:09 51°13.069 2°50.8 241.6 14.5 236 10.3
2006-12-19 08:03:14 51°13.059 2°50.772 241.6 14.5 240 10.3
2006-12-19 08:03:19 51°13.047 2°50.745 241.7 14.5 236 10.2
2006-12-19 08:03:23 51°13.039 2°50.723 241.1 14.5 239 10.3
2006-12-19 08:03:30 51°13.024 2°50.685 241.8 14.5 238 10.2
2006-12-19 08:03:34 51°13.016 2°50.663 241.3 14.5 238 10.2
2006-12-19 08:03:39 51°13.005 2°50.636 241.4 14.5 238 10.2
2006-12-19 08:03:44 51°12.995 2°50.608 241.4 14.5 238 10.3
2006-12-19 08:03:48 51°12.986 2°50.587 241.4 14.5 238 10.3
2006-12-19 08:03:54 51°12.973 2°50.554 241.6 14.5 238 10.3
2006-12-19 08:03:59 51°12.963 2°50.527 241.3 14.5 238 10.3
2006-12-19 08:04:04 51°12.952 2°50.5 241.3 14.6 237 10.3
2006-12-19 08:04:09 51°12.941 2°50.472 241 14.5 239 10.4
2006-12-19 08:04:14 51°12.93 2°50.445 241.6 14.6 237 10.3
2006-12-19 08:04:19 51°12.92 2°50.418 240.9 14.6 239 10.3
2006-12-19 08:04:23 51°12.911 2°50.396 241.7 14.5 237 10.3
2006-12-19 08:04:29 51°12.898 2°50.364 241.1 14.6 238 10.2
2006-12-19 08:04:34 51°12.887 2°50.337 241 14.6 238 10.3
2006-12-19 08:04:39 51°12.877 2°50.309 241.6 14.5 239 10.4
2006-12-19 08:04:44 51°12.866 2°50.282 241.6 14.5 238 10.3
2006-12-19 08:04:49 51°12.856 2°50.254 241.6 14.6 240 10.3
2006-12-19 08:04:54 51°12.846 2°50.227 243.2 14.4 238 10.2
2006-12-19 08:04:58 51°12.837 2°50.205 242.3 14.5 240 10.3
2006-12-19 08:05:04 51°12.826 2°50.172 243.1 14.5 239 10.3
2006-12-19 08:05:09 51°12.815 2°50.144 243.2 14.4 240 10.3
2006-12-19 08:05:14 51°12.805 2°50.117 242.6 14.5 240 10.3
2006-12-19 08:05:19 51°12.795 2°50.089 243.9 14.4 241 10.3
2006-12-19 08:05:23 51°12.786 2°50.067 243.1 14.5 239 10.3
2006-12-19 08:05:30 51°12.772 2°50.028 243.1 14.5 241 10.3
2006-12-19 08:05:34 51°12.764 2°50.006 243.5 14.4 240 10.4
2006-12-19 08:05:39 51°12.753 2°49.979 243.1 14.5 238 10.3
2006-12-19 08:05:43 51°12.746 2°49.956 243.4 14.5 241 10.3
2006-12-19 08:05:49 51°12.733 2°49.923 243.1 14.5 239 10.4
2006-12-19 08:05:54 51°12.723 2°49.895 243.1 14.4 241 10.3
2006-12-19 08:06:00 51°12.711 2°49.862 243.8 14.5 240 10.4
2006-12-19 08:06:04 51°12.703 2°49.84 243.5 14.5 240 10.4
2006-12-19 08:06:10 51°12.691 2°49.806 243.7 14.4 240 10.5
2006-12-19 08:06:14 51°12.683 2°49.784 243.8 14.4 240 10.4
2006-12-19 08:06:20 51°12.671 2°49.751 243.1 14.5 240 10.5
2006-12-19 08:06:24 51°12.663 2°49.729 243.8 14.4 240 10.4
2006-12-19 08:06:28 51°12.655 2°49.707 242.9 14.4 240 10.4
2006-12-19 08:06:34 51°12.643 2°49.674 243.3 14.4 240 10.4
2006-12-19 08:06:39 51°12.633 2°49.647 243.3 14.4 241 10.5
2006-12-19 08:06:44 51°12.623 2°49.619 243.7 14.4 239 10.5
2006-12-19 08:06:49 51°12.613 2°49.592 243.4 14.4 240 10.5
2006-12-19 08:06:54 51°12.603 2°49.564 243.4 14.4 240 10.5
2006-12-19 08:06:59 51°12.593 2°49.536 243.1 14.4 240 10.5
2006-12-19 08:07:04 51°12.582 2°49.509 242.7 14.4 239 10.4
2006-12-19 08:07:10 51°12.571 2°49.476 243 14.4 240 10.5
2006-12-19 08:07:14 51°12.562 2°49.454 243 14.4 239 10.5
2006-12-19 08:07:20 51°12.551 2°49.422 242.9 14.4 241 10.4
2006-12-19 08:07:24 51°12.543 2°49.4 243.3 14.4 239 10.5
2006-12-19 08:07:30 51°12.531 2°49.367 243.2 14.4 241 10.5
2006-12-19 08:07:34 51°12.523 2°49.345 243.3 14.3 240 10.5
2006-12-19 08:07:40 51°12.51 2°49.313 243.3 14.3 240 10.5
2006-12-19 08:07:44 51°12.503 2°49.29 243.5 14.4 241 10.4
2006-12-19 08:07:50 51°12.491 2°49.258 243.8 14.3 239 10.4
2006-12-19 08:07:54 51°12.483 2°49.236 243.5 14.3 240 10.4
2006-12-19 08:08:00 51°12.471 2°49.203 243.1 14.3 239 10.5
2006-12-19 08:08:04 51°12.463 2°49.181 243.3 14.3 240 10.4
2006-12-19 08:08:09 51°12.452 2°49.154 242.7 14.3 239 10.4
2006-12-19 08:08:14 51°12.443 2°49.127 243.4 14.2 240 10.4
2006-12-19 08:08:20 51°12.43 2°49.095 242.3 14.3 238 10.5
2006-12-19 08:08:24 51°12.422 2°49.072 242.6 14.3 241 10.4
2006-12-19 08:08:29 51°12.411 2°49.046 243 14.3 237 10.5
2006-12-19 08:08:34 51°12.402 2°49.018 242.5 14.3 241 10.5
2006-12-19 08:08:39 51°12.392 2°48.991 243 14.3 238 10.4
2006-12-19 08:08:44 51°12.382 2°48.964 242.8 14.3 241 10.5
2006-12-19 08:08:49 51°12.372 2°48.937 243.8 14.1 239 10.4
2006-12-19 08:08:54 51°12.362 2°48.91 242.7 14.2 240 10.4
2006-12-19 08:09:00 51°12.35 2°48.877 243.4 14.3 241 10.5
2006-12-19 08:09:04 51°12.342 2°48.855 243.5 14.2 239 10.4
2006-12-19 08:09:10 51°12.33 2°48.823 243.2 14.1 239 10.4
2006-12-19 08:09:14 51°12.322 2°48.801 242.4 14.3 240 10.5
2006-12-19 08:09:20 51°12.31 2°48.769 243.1 14.2 239 10.5
2006-12-19 08:09:24 51°12.301 2°48.747 243 14.3 239 10.5
2006-12-19 08:09:30 51°12.29 2°48.714 242.6 14.3 240 10.5
2006-12-19 08:09:34 51°12.281 2°48.693 243.4 14.2 238 10.5
2006-12-19 08:09:39 51°12.271 2°48.666 242.7 14.3 240 10.5
2006-12-19 08:09:44 51°12.261 2°48.638 243.4 14.3 239 10.5
2006-12-19 08:09:49 51°12.251 2°48.611 243.4 14.3 240 10.6
2006-12-19 08:09:54 51°12.241 2°48.584 243.1 14.4 239 10.5
2006-12-19 08:10:00 51°12.229 2°48.551 242.8 14.4 240 10.5
2006-12-19 08:10:03 51°12.223 2°48.535 243.5 14.3 239 10.5
2006-12-19 08:10:10 51°12.208 2°48.496 242.8 14.4 240 10.4
2006-12-19 08:10:14 51°12.2 2°48.474 243.2 14.4 240 10.4
2006-12-19 08:10:19 51°12.191 2°48.447 243.5 14.4 240 10.6
2006-12-19 08:10:24 51°12.18 2°48.42 243.1 14.5 239 10.5
2006-12-19 08:10:29 51°12.171 2°48.392 243.2 14.3 241 10.4
2006-12-19 08:10:34 51°12.16 2°48.365 243.1 14.3 238 10.4
2006-12-19 08:10:39 51°12.15 2°48.337 242.8 14.5 241 10.4
2006-12-19 08:10:44 51°12.14 2°48.31 243.6 14.3 239 10.5
2006-12-19 08:10:48 51°12.132 2°48.289 243.2 14.4 239 10.5
2006-12-19 08:10:54 51°12.119 2°48.256 242.5 14.5 239 10.5
2006-12-19 08:10:59 51°12.11 2°48.228 243.4 14.4 240 10.5
2006-12-19 08:11:04 51°12.099 2°48.201 243.1 14.4 240 10.5
2006-12-19 08:11:10 51°12.087 2°48.168 243.2 14.5 240 10.4
2006-12-19 08:11:15 51°12.078 2°48.14 243.5 14.4 240 10.4
2006-12-19 08:11:20 51°12.067 2°48.113 243.9 14.4 240 10.4
2006-12-19 08:11:24 51°12.059 2°48.09 243.4 14.4 240 10.5
2006-12-19 08:11:29 51°12.05 2°48.063 243.8 14.4 239 10.4
2006-12-19 08:11:34 51°12.04 2°48.035 243.1 14.5 241 10.4
2006-12-19 08:11:39 51°12.03 2°48.008 244 14.4 240 10.4
2006-12-19 08:11:44 51°12.02 2°47.98 243.8 14.4 240 10.4
2006-12-19 08:11:49 51°12.01 2°47.952 243.5 14.5 240 10.4
2006-12-19 08:11:54 51°12 2°47.925 243.8 14.5 241 10.4
2006-12-19 08:11:59 51°11.99 2°47.897 244.4 14.4 241 10.4
2006-12-19 08:12:03 51°11.982 2°47.875 243.8 14.4 240 10.4
2006-12-19 08:12:10 51°11.968 2°47.836 243.7 14.5 240 10.4
2006-12-19 08:12:14 51°11.96 2°47.814 244.2 14.4 241 10.3
2006-12-19 08:12:20 51°11.948 2°47.781 244.2 14.4 240 10.3
2006-12-19 08:12:24 51°11.94 2°47.759 243.9 14.5 240 10.3
2006-12-19 08:12:29 51°11.93 2°47.731 243.8 14.4 240 10.4
2006-12-19 08:12:34 51°11.92 2°47.703 243.8 14.4 241 10.3
2006-12-19 08:12:39 51°11.91 2°47.676 243.8 14.4 240 10.3
2006-12-19 08:12:43 51°11.902 2°47.653 243.9 14.4 240 10.2
2006-12-19 08:12:49 51°11.89 2°47.62 243.6 14.4 240 10.2
2006-12-19 08:12:54 51°11.88 2°47.593 243.1 14.4 240 10.2
2006-12-19 08:12:59 51°11.871 2°47.565 243.7 14.4 240 10.3
2006-12-19 08:13:03 51°11.862 2°47.543 243.4 14.4 239 10.1
2006-12-19 08:13:10 51°11.848 2°47.505 242.9 14.5 240 10.1
2006-12-19 08:13:15 51°11.838 2°47.477 243.8 14.5 241 10.2
2006-12-19 08:13:20 51°11.828 2°47.45 243.7 14.3 239 10.1
2006-12-19 08:13:24 51°11.82 2°47.428 243.3 14.4 240 10.1
2006-12-19 08:13:28 51°11.812 2°47.406 243 14.6 239 10.1
2006-12-19 08:13:34 51°11.8 2°47.372 243.8 14.4 241 10.1
2006-12-19 08:13:40 51°11.788 2°47.34 243.1 14.3 238 10.1
2006-12-19 08:13:44 51°11.78 2°47.317 243 14.4 240 10
2006-12-19 08:13:49 51°11.769 2°47.29 243.1 14.5 240 10
2006-12-19 08:13:53 51°11.762 2°47.268 243.8 14.3 240 10
2006-12-19 08:13:59 51°11.75 2°47.235 243.4 14.3 240 9.9
2006-12-19 08:14:04 51°11.74 2°47.208 242.9 14.4 240 9.9
2006-12-19 08:14:10 51°11.728 2°47.174 243.4 14.4 241 9.9
2006-12-19 08:14:14 51°11.72 2°47.153 244 14.2 240 9.8
2006-12-19 08:14:20 51°11.708 2°47.12 243.5 14.2 240 9.8
2006-12-19 08:14:24 51°11.7 2°47.098 243.1 14.4 241 9.7
2006-12-19 08:14:29 51°11.692 2°47.069 246.1 14.4 245 9.7
2006-12-19 08:14:34 51°11.684 2°47.041 248.9 14.2 246 9.8
2006-12-19 08:14:39 51°11.676 2°47.012 250.2 14.2 247 9.8
2006-12-19 08:14:43 51°11.671 2°46.988 252.5 14.3 250 9.7
2006-12-19 08:14:49 51°11.663 2°46.953 254 14.2 250 9.7
2006-12-19 08:14:54 51°11.656 2°46.923 254.8 14.3 252 9.9
2006-12-19 08:14:59 51°11.65 2°46.893 255.7 14.3 251 9.9
2006-12-19 08:15:04 51°11.644 2°46.863 256.3 14.3 253 9.9
2006-12-19 08:15:08 51°11.64 2°46.839 257 14.4 254 9.9
2006-12-19 08:15:14 51°11.633 2°46.802 258.2 14.3 254 10
2006-12-19 08:15:19 51°11.628 2°46.772 258.3 14.3 254 10
2006-12-19 08:15:24 51°11.622 2°46.741 258.7 14.4 254 10.1
2006-12-19 08:15:29 51°11.617 2°46.711 259.1 14.4 255 10.1
2006-12-19 08:15:34 51°11.612 2°46.68 259.3 14.4 254 10.2
2006-12-19 08:15:39 51°11.607 2°46.65 258.6 14.4 254 10.3
2006-12-19 08:15:44 51°11.601 2°46.619 258.7 14.4 254 10.3
2006-12-19 08:15:49 51°11.596 2°46.589 258.4 14.4 254 10.3
2006-12-19 08:15:54 51°11.59 2°46.558 258.3 14.4 254 10.4
2006-12-19 08:15:59 51°11.584 2°46.528 258.1 14.4 254 10.6
2006-12-19 08:16:04 51°11.579 2°46.497 257.8 14.4 253 10.6
2006-12-19 08:16:09 51°11.573 2°46.467 257.7 14.4 254 10.6
2006-12-19 08:16:14 51°11.567 2°46.436 258.1 14.4 253 10.6
2006-12-19 08:16:19 51°11.562 2°46.405 257.7 14.4 255 10.7
2006-12-19 08:16:24 51°11.556 2°46.375 258.2 14.4 253 10.7
2006-12-19 08:16:29 51°11.551 2°46.344 258.2 14.4 254 10.9
2006-12-19 08:16:33 51°11.547 2°46.32 258.8 14.4 254 10.9
2006-12-19 08:16:39 51°11.54 2°46.283 258.2 14.4 254 10.9
2006-12-19 08:16:44 51°11.535 2°46.252 258.5 14.4 254 10.9
2006-12-19 08:16:49 51°11.529 2°46.222 258.3 14.4 254 11
2006-12-19 08:16:54 51°11.523 2°46.191 258.3 14.4 254 11.1
2006-12-19 08:16:59 51°11.518 2°46.161 258.2 14.4 254 11
2006-12-19 08:17:03 51°11.514 2°46.137 258 14.4 254 11.1
2006-12-19 08:17:09 51°11.507 2°46.1 258.2 14.3 254 11.1
2006-12-19 08:17:14 51°11.502 2°46.07 257.8 14.3 253 11.1
2006-12-19 08:17:19 51°11.496 2°46.039 257.6 14.3 254 11.1
2006-12-19 08:17:23 51°11.491 2°46.015 257.6 14.3 254 11.1
2006-12-19 08:17:29 51°11.485 2°45.978 257.5 14.3 254 11.1
2006-12-19 08:17:34 51°11.479 2°45.948 257.6 14.3 253 11.2
2006-12-19 08:17:39 51°11.474 2°45.917 257.5 14.4 253 11.2
2006-12-19 08:17:44 51°11.468 2°45.887 257.4 14.4 254 11.2
2006-12-19 08:17:48 51°11.464 2°45.863 257.7 14.3 254 11.2
2006-12-19 08:17:54 51°11.457 2°45.826 257.7 14.3 254 11.2
2006-12-19 08:17:59 51°11.452 2°45.796 257.8 14.3 254 11.3
2006-12-19 08:18:04 51°11.447 2°45.765 258.2 14.3 255 11.3
2006-12-19 08:18:09 51°11.441 2°45.735 258.3 14.3 254 11.4
2006-12-19 08:18:14 51°11.435 2°45.704 258 14.3 253 11.4
2006-12-19 08:18:19 51°11.43 2°45.674 257.4 14.3 254 11.4
2006-12-19 08:18:24 51°11.424 2°45.644 257.6 14.3 253 11.4
2006-12-19 08:18:29 51°11.419 2°45.614 257.4 14.3 255 11.5
2006-12-19 08:18:34 51°11.413 2°45.583 257.7 14.3 253 11.5
2006-12-19 08:18:40 51°11.407 2°45.547 257.5 14.3 254 11.6
2006-12-19 08:18:44 51°11.402 2°45.523 257.3 14.3 253 11.6
2006-12-19 08:18:49 51°11.396 2°45.493 256.9 14.3 254 11.6
2006-12-19 08:18:54 51°11.391 2°45.463 257.6 14.2 254 11.5
2006-12-19 08:18:59 51°11.385 2°45.433 257.4 14.3 254 11.6
2006-12-19 08:19:04 51°11.379 2°45.402 257.2 14.3 253 11.6
2006-12-19 08:19:09 51°11.374 2°45.373 257.2 14.3 254 11.5
2006-12-19 08:19:14 51°11.368 2°45.342 257 14.3 254 11.6
2006-12-19 08:19:19 51°11.363 2°45.312 257.3 14.3 254 11.6
2006-12-19 08:19:23 51°11.358 2°45.288 256.9 14.3 254 11.6
2006-12-19 08:19:29 51°11.352 2°45.251 257.6 14.3 254 11.6
2006-12-19 08:19:34 51°11.346 2°45.221 257.5 14.3 254 11.7
2006-12-19 08:19:39 51°11.34 2°45.191 257.3 14.3 253 11.6
2006-12-19 08:19:43 51°11.336 2°45.167 256.9 14.3 255 11.7
2006-12-19 08:19:49 51°11.329 2°45.13 257.4 14.3 253 11.8
2006-12-19 08:19:54 51°11.324 2°45.099 257.4 14.3 254 11.7
2006-12-19 08:19:59 51°11.319 2°45.069 258.2 14.3 256 11.7
2006-12-19 08:20:04 51°11.314 2°45.038 258.8 14.3 256 11.8
2006-12-19 08:20:08 51°11.311 2°45.013 259.8 14.3 256 11.7
2006-12-19 08:20:13 51°11.306 2°44.983 259.9 14.3 257 11.8
2006-12-19 08:20:20 51°11.3 2°44.939 260.3 14.3 257 11.9
2006-12-19 08:20:24 51°11.296 2°44.915 260.5 14.3 256 11.8
2006-12-19 08:20:30 51°11.291 2°44.877 260.2 14.4 257 11.9
2006-12-19 08:20:34 51°11.287 2°44.853 260.2 14.3 257 11.9
2006-12-19 08:20:40 51°11.281 2°44.816 260.5 14.3 257 11.9
2006-12-19 08:20:45 51°11.277 2°44.785 260.5 14.3 257 11.8
2006-12-19 08:20:49 51°11.273 2°44.76 260.6 14.4 257 11.9
2006-12-19 08:20:54 51°11.268 2°44.73 260.5 14.3 256 11.9
2006-12-19 08:21:00 51°11.263 2°44.693 260.1 14.3 257 12
2006-12-19 08:21:04 51°11.259 2°44.668 260.3 14.4 258 12
2006-12-19 08:21:09 51°11.256 2°44.637 261.2 14.4 258 12
2006-12-19 08:21:15 51°11.251 2°44.6 261.4 14.3 259 12
2006-12-19 08:21:20 51°11.247 2°44.568 262.3 14.3 259 12
2006-12-19 08:21:24 51°11.244 2°44.543 262.5 14.4 259 12
2006-12-19 08:21:30 51°11.24 2°44.506 262.9 14.3 260 12.1
2006-12-19 08:21:35 51°11.236 2°44.475 263.2 14.3 259 12
2006-12-19 08:21:40 51°11.232 2°44.444 263 14.3 259 12.1
2006-12-19 08:21:44 51°11.229 2°44.419 263.2 14.3 260 12.2
2006-12-19 08:21:49 51°11.226 2°44.388 263.6 14.3 260 12.1
2006-12-19 08:21:55 51°11.222 2°44.351 264.4 14.3 261 12.1
2006-12-19 08:22:00 51°11.219 2°44.32 264.6 14.3 261 12.2
2006-12-19 08:22:04 51°11.216 2°44.295 264.8 14.3 261 12.3
2006-12-19 08:22:09 51°11.213 2°44.264 264.8 14.3 261 12.2
2006-12-19 08:22:15 51°11.209 2°44.226 264.3 14.3 261 12.3
2006-12-19 08:22:20 51°11.206 2°44.195 264.6 14.3 261 12.3
2006-12-19 08:22:24 51°11.203 2°44.171 264.3 14.3 261 12.3
2006-12-19 08:22:30 51°11.2 2°44.133 264.2 14.3 262 12.3
2006-12-19 08:22:34 51°11.198 2°44.107 265.1 14.3 262 12.3
2006-12-19 08:22:40 51°11.195 2°44.069 265.7 14.4 263 12.3
2006-12-19 08:22:44 51°11.193 2°44.044 266.2 14.3 262 12.3
2006-12-19 08:22:49 51°11.19 2°44.013 266.3 14.4 264 12.4
2006-12-19 08:22:54 51°11.188 2°43.982 267 14.3 262 12.3
2006-12-19 08:23:00 51°11.185 2°43.944 266.7 14.3 264 12.4
2006-12-19 08:23:04 51°11.184 2°43.919 267.5 14.4 264 12.4
2006-12-19 08:23:09 51°11.182 2°43.887 268 14.3 264 12.5
2006-12-19 08:23:15 51°11.179 2°43.85 268.3 14.4 265 12.4
2006-12-19 08:23:20 51°11.178 2°43.818 268.7 14.4 265 12.4
2006-12-19 08:23:24 51°11.176 2°43.793 268.9 14.3 265 12.4
2006-12-19 08:23:29 51°11.174 2°43.761 268.6 14.3 264 12.5
2006-12-19 08:23:35 51°11.172 2°43.723 268.5 14.4 265 12.5
2006-12-19 08:23:40 51°11.17 2°43.692 268.7 14.3 264 12.6
2006-12-19 08:23:44 51°11.169 2°43.667 268.8 14.3 265 12.6
2006-12-19 08:23:50 51°11.166 2°43.629 268.9 14.4 264 12.6
2006-12-19 08:23:55 51°11.165 2°43.597 268.8 14.4 265 12.6
2006-12-19 08:24:00 51°11.163 2°43.566 269 14.4 265 12.6
2006-12-19 08:24:04 51°11.161 2°43.541 268.7 14.3 264 12.6
2006-12-19 08:24:09 51°11.159 2°43.509 268.3 14.3 265 12.6
2006-12-19 08:24:15 51°11.157 2°43.471 268.2 14.4 264 12.7
2006-12-19 08:24:20 51°11.156 2°43.44 268.5 14.4 266 12.7
2006-12-19 08:24:24 51°11.154 2°43.415 269.1 14.3 265 12.7
2006-12-19 08:24:29 51°11.153 2°43.383 269.7 14.3 267 12.7
2006-12-19 08:24:35 51°11.151 2°43.346 270.2 14.3 267 12.8
2006-12-19 08:24:40 51°11.15 2°43.314 270.6 14.3 266 12.7
2006-12-19 08:24:45 51°11.149 2°43.283 270.7 14.3 267 12.7
2006-12-19 08:24:50 51°11.148 2°43.251 270.5 14.4 267 12.8
2006-12-19 08:24:54 51°11.148 2°43.226 270.7 14.3 267 12.8
2006-12-19 08:25:00 51°11.146 2°43.188 271.1 14.3 267 12.8
2006-12-19 08:25:05 51°11.145 2°43.156 270.8 14.3 267 12.8
2006-12-19 08:25:10 51°11.144 2°43.125 270.8 14.3 267 12.8
2006-12-19 08:25:14 51°11.143 2°43.099 270.7 14.3 267 12.8
2006-12-19 08:25:20 51°11.142 2°43.062 270.2 14.3 266 12.8
2006-12-19 08:25:24 51°11.141 2°43.036 270 14.3 266 12.8
2006-12-19 08:25:29 51°11.14 2°43.004 270 14.3 267 12.8
2006-12-19 08:25:35 51°11.138 2°42.965 270.1 14.3 266 12.8
2006-12-19 08:25:39 51°11.138 2°42.942 270.1 14.2 267 12.9
2006-12-19 08:25:44 51°11.137 2°42.912 270 14.2 265 12.8
2006-12-19 08:25:49 51°11.135 2°42.881 270 14.2 267 12.9
2006-12-19 08:25:54 51°11.134 2°42.85 270 14.2 266 12.8
2006-12-19 08:26:00 51°11.133 2°42.812 270.4 14.2 268 12.7
2006-12-19 08:26:04 51°11.132 2°42.788 270.5 14.2 266 12.8
2006-12-19 08:26:10 51°11.13 2°42.75 270.5 14.2 266 12.8
2006-12-19 08:26:14 51°11.129 2°42.725 270.2 14.2 267 12.8
2006-12-19 08:26:20 51°11.128 2°42.687 270.3 14.2 267 12.7
2006-12-19 08:26:24 51°11.128 2°42.663 270.7 13.3 267 12.8
2006-12-19 08:26:29 51°11.127 2°42.635 270.4 12.7 266 12.6
2006-12-19 08:26:35 51°11.125 2°42.603 269.7 12.2 266 12.7
2006-12-19 08:26:39 51°11.124 2°42.583 269.3 11.5 266 12.8
2006-12-19 08:26:44 51°11.123 2°42.558 269.2 10.9 265 12.8
2006-12-19 08:26:49 51°11.121 2°42.535 268.7 10.6 265 12.9
2006-12-19 08:26:55 51°11.12 2°42.508 268.6 10.2 265 12.9
2006-12-19 08:27:00 51°11.119 2°42.486 268.5 9.9 265 12.9
2006-12-19 08:27:04 51°11.118 2°42.469 268.5 9.6 265 12.9
2006-12-19 08:27:09 51°11.117 2°42.449 268.7 9.3 265 12.8
2006-12-19 08:27:14 51°11.116 2°42.428 268.9 9.1 265 12.9
2006-12-19 08:27:20 51°11.114 2°42.405 269.2 8.9 266 12.8
2006-12-19 08:27:24 51°11.113 2°42.39 269.2 8.6 265 12.9
2006-12-19 08:27:29 51°11.113 2°42.371 269.6 8.3 266 12.9
2006-12-19 08:27:34 51°11.112 2°42.353 270 8 265 12.8
2006-12-19 08:27:39 51°11.111 2°42.336 270 7.8 266 12.8
2006-12-19 08:27:44 51°11.111 2°42.319 270.4 7.6 266 12.8
2006-12-19 08:27:50 51°11.11 2°42.3 270.7 7.5 266 12.8
2006-12-19 08:27:54 51°11.109 2°42.287 270.8 7.2 266 12.9
2006-12-19 08:28:00 51°11.108 2°42.268 270.9 7 265 12.7
2006-12-19 08:28:05 51°11.107 2°42.253 270.8 6.9 266 12.7
2006-12-19 08:28:09 51°11.107 2°42.241 270.7 6.9 265 12.7
2006-12-19 08:28:15 51°11.105 2°42.224 270.8 6.7 267 12.6
2006-12-19 08:28:19 51°11.104 2°42.212 270.7 6.6 265 12.6
2006-12-19 08:28:24 51°11.104 2°42.198 270.7 6.6 267 12.7
2006-12-19 08:28:29 51°11.103 2°42.183 270.5 6.5 265 12.7
2006-12-19 08:28:34 51°11.103 2°42.169 270.5 6.4 265 12.6
2006-12-19 08:28:40 51°11.102 2°42.153 270.4 6.3 266 12.7
2006-12-19 08:28:44 51°11.101 2°42.141 270.4 6.3 265 12.7
2006-12-19 08:28:49 51°11.101 2°42.128 270.1 6.1 266 12.6
2006-12-19 08:28:54 51°11.1 2°42.114 270.2 5.8 265 12.7
2006-12-19 08:29:00 51°11.099 2°42.1 270 5.6 264 12.7
2006-12-19 08:29:04 51°11.099 2°42.091 269.5 5.3 263 12.7
2006-12-19 08:29:09 51°11.098 2°42.08 268.6 4.6 263 12.7
2006-12-19 08:29:14 51°11.097 2°42.071 267.2 4 261 12.7
2006-12-19 08:29:20 51°11.096 2°42.062 265.6 3.2 256 12.7
2006-12-19 08:29:24 51°11.096 2°42.058 263.6 2.5 258 12.6
2006-12-19 08:29:29 51°11.094 2°42.054 260.8 1.8 254 12.6
2006-12-19 08:29:34 51°11.093 2°42.052 257.6 1 255 12.7
2006-12-19 08:29:40 51°11.093 2°42.051 255 0.3 229 12.7
2006-12-19 08:29:45 51°11.093 2°42.051 254.5 0.2 46 12.7
2006-12-19 08:29:49 51°11.092 2°42.053 254.3 0.3 114 12.6
2006-12-19 08:29:53 51°11.092 2°42.053 254 0.2 31 12.7
2006-12-19 08:29:59 51°11.092 2°42.053 253.4 0.2 112 12.7
2006-12-19 08:30:04 51°11.092 2°42.053 253 0.1 49 12.7
2006-12-19 08:30:10 51°11.092 2°42.054 252.4 0.1 106 -999
2006-12-19 08:30:16 51°11.092 2°42.054 251.8 0.1 113 -999
2006-12-19 08:30:21 51°11.091 2°42.055 251.4 0.1 154 -999
2006-12-19 08:30:27 51°11.091 2°42.054 251 -999 333 -999
2006-12-19 08:30:33 51°11.091 2°42.054 250.5 0.1 166 -999
2006-12-19 08:30:38 51°11.092 2°42.054 250.3 0.1 174 -999
2006-12-19 08:30:43 51°11.092 2°42.053 249.9 0.1 279 -999
2006-12-19 08:30:48 51°11.092 2°42.053 249.7 0.1 256 5.6
2006-12-19 08:30:53 51°11.092 2°42.053 249.7 0.1 287 -999
2006-12-19 08:30:58 51°11.092 2°42.053 249.7 0.1 251 -999
2006-12-19 08:31:03 51°11.091 2°42.053 249.8 0.2 264 -999
2006-12-19 08:31:08 51°11.092 2°42.052 250.1 0.3 299 6.4
2006-12-19 08:31:12 51°11.092 2°42.052 250.4 0.1 229 5.5
2006-12-19 08:31:17 51°11.091 2°42.051 250.6 0.1 241 5.5
2006-12-19 08:31:23 51°11.091 2°42.051 251.2 0.2 255 5.8
2006-12-19 08:31:27 51°11.092 2°42.05 251.4 0.2 273 7.2
2006-12-19 08:31:32 51°11.092 2°42.049 251.5 0.2 232 6.1
2006-12-19 08:31:37 51°11.093 2°42.049 251.8 0.3 295 5.3
2006-12-19 08:31:42 51°11.092 2°42.049 252 0.2 234 6.2
2006-12-19 08:31:47 51°11.092 2°42.048 252.1 0.3 264 6.1
2006-12-19 08:31:52 51°11.091 2°42.048 252.2 0.3 233 5.7
2006-12-19 08:31:57 51°11.092 2°42.047 252.3 0.3 277 5.8
2006-12-19 08:32:02 51°11.091 2°42.047 252.3 0.3 218 7.1
2006-12-19 08:32:07 51°11.091 2°42.046 252.5 0.3 262 5.4
2006-12-19 08:32:12 51°11.09 2°42.047 252.6 0.3 226 6.3
2006-12-19 08:32:16 51°11.09 2°42.046 252.6 0.3 266 5.1
2006-12-19 08:32:21 51°11.091 2°42.044 252.8 0.3 236 6
2006-12-19 08:32:26 51°11.09 2°42.044 252.9 0.3 254 5.7
2006-12-19 08:32:31 51°11.089 2°42.044 253 0.4 235 5.8
2006-12-19 08:32:36 51°11.088 2°42.044 252.9 0.3 256 5.6
2006-12-19 08:32:41 51°11.088 2°42.043 252.9 0.3 241 6.2
2006-12-19 08:32:45 51°11.088 2°42.043 252.7 0.3 246 5.6
2006-12-19 08:32:51 51°11.088 2°42.041 252.6 0.4 243 5.8
2006-12-19 08:32:55 51°11.088 2°42.041 252.5 0.4 245 12.8
2006-12-19 08:33:00 51°11.087 2°42.04 252.4 0.4 247 12.7
2006-12-19 08:33:05 51°11.087 2°42.039 252.1 0.4 264 11
2006-12-19 08:33:10 51°11.087 2°42.038 252 0.4 254 12.7
2006-12-19 08:33:15 51°11.087 2°42.038 251.7 0.4 229 12.7
2006-12-19 08:33:20 51°11.087 2°42.037 251.5 0.4 252 12.2
2006-12-19 08:33:24 51°11.085 2°42.037 251.2 0.4 243 12.3
2006-12-19 08:33:29 51°11.085 2°42.036 251 0.4 254 12.8
2006-12-19 08:33:34 51°11.084 2°42.035 250.7 0.4 254 12.8
2006-12-19 08:33:40 51°11.084 2°42.034 250.4 0.4 246 10.8
2006-12-19 08:33:44 51°11.084 2°42.034 250.2 0.4 261 11
2006-12-19 08:33:49 51°11.083 2°42.033 249.9 0.4 233 12.8
2006-12-19 08:33:54 51°11.084 2°42.031 249.6 0.5 269 12
2006-12-19 08:34:00 51°11.083 2°42.03 249.4 0.4 246 11.4
2006-12-19 08:34:04 51°11.084 2°42.029 249.4 0.5 251 11.1
2006-12-19 08:34:09 51°11.084 2°42.028 249.1 0.5 253 12.7
2006-12-19 08:34:14 51°11.084 2°42.027 248.9 0.5 264 12.7
2006-12-19 08:34:20 51°11.083 2°42.026 248.9 0.5 243 12.8
2006-12-19 08:34:24 51°11.083 2°42.026 248.7 0.5 249 12.8
2006-12-19 08:34:29 51°11.082 2°42.025 248.5 0.5 242 12.7
2006-12-19 08:34:34 51°11.082 2°42.024 248.3 0.5 255 12.7
2006-12-19 08:34:39 51°11.081 2°42.024 248.3 0.5 241 12.7
2006-12-19 08:34:45 51°11.082 2°42.021 248.4 0.5 257 12.2
2006-12-19 08:34:49 51°11.081 2°42.021 248.5 0.5 243 12.8
2006-12-19 08:34:55 51°11.08 2°42.02 248.6 0.5 249 12.1
2006-12-19 08:34:59 51°11.08 2°42.02 248.7 0.5 249 12.4
2006-12-19 08:35:04 51°11.081 2°42.018 248.7 0.5 240 12.8
2006-12-19 08:35:09 51°11.081 2°42.016 248.8 0.5 234 12.8
2006-12-19 08:35:14 51°11.08 2°42.015 248.8 0.5 249 12.8
2006-12-19 08:35:20 51°11.08 2°42.014 248.9 0.5 243 12.8
2006-12-19 08:35:24 51°11.08 2°42.013 248.9 0.5 248 12.9
2006-12-19 08:35:29 51°11.08 2°42.012 248.9 0.5 245 12.9
2006-12-19 08:35:34 51°11.079 2°42.011 249 0.5 244 12.9
2006-12-19 08:35:40 51°11.079 2°42.009 249 0.5 245 12.8
2006-12-19 08:35:44 51°11.079 2°42.008 249 0.5 239 12.8
2006-12-19 08:35:49 51°11.078 2°42.008 248.9 0.5 244 12.9
2006-12-19 08:35:54 51°11.077 2°42.007 248.9 0.5 246 12.8
2006-12-19 08:36:00 51°11.076 2°42.007 248.8 0.6 249 12.8
2006-12-19 08:36:04 51°11.076 2°42.006 248.8 0.5 244 12.8
2006-12-19 08:36:09 51°11.076 2°42.005 248.8 0.5 247 12.8
2006-12-19 08:36:14 51°11.075 2°42.003 248.8 0.6 235 12.8
2006-12-19 08:36:20 51°11.075 2°42.002 248.7 0.5 254 12.8
2006-12-19 08:36:24 51°11.075 2°42.002 248.7 0.5 246 12.8
2006-12-19 08:36:29 51°11.074 2°42 248.3 0.5 249 12.9
2006-12-19 08:36:34 51°11.074 2°41.999 248.2 0.6 246 12.8
2006-12-19 08:36:39 51°11.074 2°41.998 248 0.6 250 12.9
2006-12-19 08:36:44 51°11.074 2°41.996 248 0.6 235 12.7
2006-12-19 08:36:49 51°11.074 2°41.995 247.7 0.6 248 12.8
2006-12-19 08:36:54 51°11.073 2°41.994 247.5 0.6 233 12.8
2006-12-19 08:36:59 51°11.073 2°41.994 247.3 0.6 250 12.8
2006-12-19 08:37:04 51°11.072 2°41.992 247.1 0.6 245 12.9
2006-12-19 08:37:10 51°11.072 2°41.991 246.9 0.6 241 12.8
2006-12-19 08:37:14 51°11.072 2°41.99 246.7 0.5 237 12.9
2006-12-19 08:37:20 51°11.071 2°41.989 246.4 0.5 240 12.8
2006-12-19 08:37:24 51°11.071 2°41.987 246.2 0.6 234 12.8
2006-12-19 08:37:30 51°11.071 2°41.986 245.9 0.6 248 12.8
2006-12-19 08:37:35 51°11.07 2°41.985 245.8 0.6 241 12.9
2006-12-19 08:37:39 51°11.07 2°41.984 245.8 0.6 244 12.8
2006-12-19 08:37:44 51°11.07 2°41.983 245.5 0.6 240 12.8
2006-12-19 08:37:49 51°11.069 2°41.982 245.2 0.6 242 12.8
2006-12-19 08:37:55 51°11.069 2°41.98 245 0.6 241 12.8
2006-12-19 08:37:59 51°11.069 2°41.98 244.8 0.6 238 12.9
2006-12-19 08:38:04 51°11.068 2°41.978 244.5 0.6 247 12.8
2006-12-19 08:38:09 51°11.068 2°41.977 244.4 0.6 237 12.9
2006-12-19 08:38:14 51°11.068 2°41.976 244.2 0.6 246 12.9
2006-12-19 08:38:20 51°11.068 2°41.974 243.9 0.6 240 12.9
2006-12-19 08:38:24 51°11.067 2°41.974 243.8 0.5 242 12.9
2006-12-19 08:38:29 51°11.067 2°41.973 243.4 0.6 237 12.8
2006-12-19 08:38:34 51°11.066 2°41.972 243.2 0.6 242 12.9
2006-12-19 08:38:40 51°11.065 2°41.971 243.1 0.6 239 12.9
2006-12-19 08:38:44 51°11.065 2°41.97 242.9 0.6 230 12.9
2006-12-19 08:38:49 51°11.064 2°41.969 242.7 0.6 240 12.9
2006-12-19 08:38:54 51°11.064 2°41.968 242.3 0.6 242 12.9
2006-12-19 08:39:00 51°11.064 2°41.966 242.1 0.6 239 12.9
2006-12-19 08:39:04 51°11.064 2°41.965 241.9 0.6 236 12.9
2006-12-19 08:39:09 51°11.064 2°41.964 241.6 0.5 238 12.9
2006-12-19 08:39:14 51°11.063 2°41.963 241.3 0.5 235 12.9
2006-12-19 08:39:19 51°11.062 2°41.962 241.1 0.5 238 12.8
2006-12-19 08:39:25 51°11.062 2°41.961 240.9 0.6 229 12.8
2006-12-19 08:39:29 51°11.061 2°41.96 240.6 0.6 240 12.9
2006-12-19 08:39:35 51°11.061 2°41.959 240.5 0.6 234 12.9
2006-12-19 08:39:39 51°11.061 2°41.958 240.2 0.6 241 12.8
2006-12-19 08:39:44 51°11.06 2°41.957 240.2 0.6 234 12.9
2006-12-19 08:39:49 51°11.058 2°41.957 240 0.6 246 13
2006-12-19 08:39:54 51°11.058 2°41.956 239.8 0.6 230 13
2006-12-19 08:40:00 51°11.057 2°41.955 239.5 0.6 239 13
2006-12-19 08:40:04 51°11.057 2°41.954 239.5 0.6 232 12.9
2006-12-19 08:40:09 51°11.056 2°41.953 239.2 0.6 242 12.9
2006-12-19 08:40:14 51°11.056 2°41.952 238.8 0.6 225 13
2006-12-19 08:40:20 51°11.056 2°41.95 238.5 0.6 230 12.9
2006-12-19 08:40:24 51°11.055 2°41.949 238.3 0.6 231 12.9
2006-12-19 08:40:29 51°11.055 2°41.949 238 0.6 235 13
2006-12-19 08:40:35 51°11.054 2°41.947 237.8 0.6 233 13
2006-12-19 08:40:39 51°11.054 2°41.946 237.5 0.6 233 12.9
2006-12-19 08:40:45 51°11.053 2°41.945 237.2 0.6 245 12.9
2006-12-19 08:40:49 51°11.053 2°41.945 237 0.6 227 13
2006-12-19 08:40:53 51°11.052 2°41.944 236.7 0.6 235 13
2006-12-19 08:41:00 51°11.052 2°41.943 236.3 0.6 220 12.9
2006-12-19 08:41:04 51°11.051 2°41.942 236.1 0.6 242 12.9
2006-12-19 08:41:09 51°11.051 2°41.941 236 0.5 218 13
2006-12-19 08:41:14 51°11.051 2°41.939 235.7 0.6 239 12.9
2006-12-19 08:41:19 51°11.05 2°41.939 235.3 0.5 224 13
2006-12-19 08:41:24 51°11.049 2°41.938 235.1 0.5 232 13
2006-12-19 08:41:29 51°11.049 2°41.937 234.9 0.5 225 13
2006-12-19 08:41:34 51°11.048 2°41.937 234.6 0.5 240 13
2006-12-19 08:41:39 51°11.047 2°41.936 234.6 0.5 226 13
2006-12-19 08:41:44 51°11.046 2°41.935 234.4 0.5 238 13
2006-12-19 08:41:50 51°11.046 2°41.933 234.3 0.5 229 13
2006-12-19 08:41:54 51°11.046 2°41.933 234.3 0.5 234 13
2006-12-19 08:42:00 51°11.046 2°41.932 234.1 0.5 228 13
2006-12-19 08:42:04 51°11.045 2°41.931 234.1 0.6 238 13
2006-12-19 08:42:09 51°11.044 2°41.93 234 0.5 228 13
2006-12-19 08:42:15 51°11.043 2°41.93 234 0.5 237 13
2006-12-19 08:42:19 51°11.043 2°41.929 233.8 0.5 228 13
2006-12-19 08:42:24 51°11.043 2°41.928 233.8 0.6 243 13
2006-12-19 08:42:29 51°11.042 2°41.927 233.7 0.6 224 13
2006-12-19 08:42:35 51°11.042 2°41.925 233.7 0.6 240 13
2006-12-19 08:42:40 51°11.041 2°41.924 233.7 0.7 224 13
2006-12-19 08:42:44 51°11.041 2°41.923 233.8 0.9 231 13
2006-12-19 08:42:49 51°11.04 2°41.921 234.1 1.3 230 13
2006-12-19 08:42:54 51°11.038 2°41.918 234.7 1.8 235 13
2006-12-19 08:43:00 51°11.037 2°41.913 235.9 2.4 234 13
2006-12-19 08:43:04 51°11.035 2°41.908 237.4 3.1 237 13.1
2006-12-19 08:43:09 51°11.032 2°41.902 239.9 3.8 239 13
2006-12-19 08:43:14 51°11.028 2°41.894 242.8 4.5 243 13.1
2006-12-19 08:43:20 51°11.025 2°41.882 247 5.1 244 13.1
2006-12-19 08:43:24 51°11.022 2°41.873 250.5 5.7 248 13.1
2006-12-19 08:43:30 51°11.019 2°41.858 252.8 6.2 249 13
2006-12-19 08:43:34 51°11.016 2°41.846 253.3 6.8 247 13
2006-12-19 08:43:40 51°11.012 2°41.828 252.5 7.4 249 13
2006-12-19 08:43:45 51°11.007 2°41.812 252.5 8 247 13
2006-12-19 08:43:49 51°11.003 2°41.799 251.8 8.7 248 13
2006-12-19 08:43:55 51°10.997 2°41.776 251.5 9.4 248 13
2006-12-19 08:43:59 51°10.993 2°41.76 251.5 9.9 247 13
2006-12-19 08:44:04 51°10.987 2°41.739 251.2 10.3 247 12.9
2006-12-19 08:44:09 51°10.982 2°41.717 251.6 10.9 248 12.9
2006-12-19 08:44:14 51°10.976 2°41.694 251.8 11.2 248 12.9
2006-12-19 08:44:20 51°10.968 2°41.667 251.8 11.5 248 13
2006-12-19 08:44:24 51°10.963 2°41.647 251.8 11.7 247 13
2006-12-19 08:44:30 51°10.956 2°41.617 251.5 12.1 248 13
2006-12-19 08:44:34 51°10.951 2°41.597 251.4 12.4 247 13
2006-12-19 08:44:40 51°10.942 2°41.567 251.4 12.6 249 12.9
2006-12-19 08:44:44 51°10.937 2°41.546 251.8 12.8 247 13
2006-12-19 08:44:49 51°10.93 2°41.52 251.8 13 249 12.9
2006-12-19 08:44:55 51°10.921 2°41.488 252 13.2 248 12.9
2006-12-19 08:45:00 51°10.915 2°41.46 252.2 13.3 248 12.9
2006-12-19 08:45:04 51°10.91 2°41.437 252 13.4 248 13
2006-12-19 08:45:09 51°10.902 2°41.41 251.8 13.5 248 13
2006-12-19 08:45:15 51°10.895 2°41.376 252 13.5 248 13
2006-12-19 08:45:20 51°10.887 2°41.349 252.3 13.6 248 12.9
2006-12-19 08:45:24 51°10.881 2°41.327 251.9 13.6 249 12.9
2006-12-19 08:45:29 51°10.875 2°41.298 252.2 13.6 249 13
2006-12-19 08:45:33 51°10.869 2°41.276 252.3 13.6 249 13
2006-12-19 08:45:40 51°10.86 2°41.236 252.6 13.7 249 13
2006-12-19 08:45:44 51°10.855 2°41.213 252.7 13.7 249 13
2006-12-19 08:45:49 51°10.848 2°41.185 252.6 13.8 249 13
2006-12-19 08:45:54 51°10.841 2°41.157 252.5 13.8 250 13
2006-12-19 08:45:59 51°10.834 2°41.129 252.3 13.8 249 13
2006-12-19 08:46:04 51°10.827 2°41.101 252 13.8 250 13.1
2006-12-19 08:46:10 51°10.819 2°41.067 252.5 13.7 249 13.1
2006-12-19 08:46:14 51°10.813 2°41.044 252.1 13.9 250 13.1
2006-12-19 08:46:20 51°10.805 2°41.01 252 13.9 249 13.1
2006-12-19 08:46:24 51°10.8 2°40.986 252.3 13.8 249 13.2
2006-12-19 08:46:30 51°10.793 2°40.952 251.9 13.8 249 13.1
2006-12-19 08:46:35 51°10.785 2°40.924 252.2 13.8 250 13.2
2006-12-19 08:46:40 51°10.779 2°40.895 252.5 13.8 250 13.2
2006-12-19 08:46:44 51°10.773 2°40.873 252.5 13.8 250 13.2
2006-12-19 08:46:49 51°10.766 2°40.844 252.6 13.9 250 13.3
2006-12-19 08:46:55 51°10.758 2°40.81 252.7 13.9 249 13.4
2006-12-19 08:46:59 51°10.752 2°40.788 252.6 13.8 250 13.4
2006-12-19 08:47:04 51°10.745 2°40.759 252.6 13.8 248 13.4
2006-12-19 08:47:09 51°10.738 2°40.73 252.3 13.8 249 13.5
2006-12-19 08:47:14 51°10.732 2°40.701 252.3 13.9 249 13.5
2006-12-19 08:47:20 51°10.724 2°40.667 252.4 13.9 250 13.6
2006-12-19 08:47:24 51°10.719 2°40.644 253.1 13.8 250 13.6
2006-12-19 08:47:29 51°10.712 2°40.615 253.1 13.8 250 13.6
2006-12-19 08:47:34 51°10.706 2°40.586 253.3 13.8 250 13.7
2006-12-19 08:47:40 51°10.697 2°40.552 253.1 13.8 249 13.7
2006-12-19 08:47:44 51°10.692 2°40.53 252.8 13.8 250 13.8
2006-12-19 08:47:49 51°10.685 2°40.501 252.6 13.8 248 13.8
2006-12-19 08:47:54 51°10.678 2°40.473 252.4 13.8 249 13.9
2006-12-19 08:48:00 51°10.669 2°40.439 252.5 13.7 248 14
2006-12-19 08:48:04 51°10.664 2°40.417 252.4 13.7 249 14
2006-12-19 08:48:09 51°10.656 2°40.389 252.5 13.8 249 14
2006-12-19 08:48:14 51°10.65 2°40.359 252.9 13.7 249 14.1
2006-12-19 08:48:19 51°10.644 2°40.331 252.8 13.7 249 14.1
2006-12-19 08:48:25 51°10.636 2°40.297 253.1 13.7 249 14.2
2006-12-19 08:48:29 51°10.63 2°40.275 253.3 13.7 249 14.2
2006-12-19 08:48:35 51°10.622 2°40.241 253.3 13.7 249 14.3
2006-12-19 08:48:39 51°10.617 2°40.218 253.1 13.7 250 14.3
2006-12-19 08:48:44 51°10.61 2°40.189 253.3 13.7 249 14.4
2006-12-19 08:48:49 51°10.604 2°40.161 253.3 13.7 249 14.4
2006-12-19 08:48:54 51°10.597 2°40.133 253.3 13.7 249 14.6
2006-12-19 08:49:00 51°10.589 2°40.099 253.3 13.7 249 14.5
2006-12-19 08:49:04 51°10.584 2°40.076 252.9 13.7 249 14.5
2006-12-19 08:49:10 51°10.576 2°40.042 252.9 13.7 249 14.5
2006-12-19 08:49:14 51°10.57 2°40.019 253 13.7 248 14.5
2006-12-19 08:49:20 51°10.561 2°39.986 252.7 13.7 251 14.6
2006-12-19 08:49:24 51°10.557 2°39.963 254 13.6 250 14.6
2006-12-19 08:49:29 51°10.55 2°39.935 254.2 13.7 251 14.7
2006-12-19 08:49:34 51°10.544 2°39.907 255.1 13.7 251 14.8
2006-12-19 08:49:40 51°10.536 2°39.873 255.5 13.7 251 14.9
2006-12-19 08:49:44 51°10.531 2°39.85 255.5 13.6 252 14.9
2006-12-19 08:49:49 51°10.525 2°39.821 255.4 13.6 250 15
2006-12-19 08:49:54 51°10.52 2°39.792 255.1 13.6 251 15.1
2006-12-19 08:50:00 51°10.511 2°39.759 253.9 13.7 248 15.1
2006-12-19 08:50:04 51°10.506 2°39.736 252.3 13.7 249 15.2
2006-12-19 08:50:09 51°10.498 2°39.708 252 13.6 247 15.3
2006-12-19 08:50:14 51°10.49 2°39.681 250.8 13.7 246 15.2
2006-12-19 08:50:19 51°10.483 2°39.654 250.6 13.7 248 15.3
2006-12-19 08:50:24 51°10.475 2°39.626 250.6 13.6 246 15.3
2006-12-19 08:50:29 51°10.467 2°39.598 250.3 13.7 246 15.3
2006-12-19 08:50:34 51°10.459 2°39.571 249.9 13.7 246 15.3
2006-12-19 08:50:39 51°10.452 2°39.543 250 13.6 246 15.4
2006-12-19 08:50:44 51°10.444 2°39.516 249.8 13.7 246 15.3
2006-12-19 08:50:50 51°10.435 2°39.483 249.8 13.7 246 15.4
2006-12-19 08:50:54 51°10.428 2°39.461 249.9 13.7 246 15.4
2006-12-19 08:51:00 51°10.419 2°39.427 249.6 13.7 246 15.5
2006-12-19 08:51:04 51°10.413 2°39.405 249.8 13.7 246 15.4
2006-12-19 08:51:10 51°10.404 2°39.371 249.9 13.7 246 15.5
2006-12-19 08:51:15 51°10.396 2°39.344 250 13.8 247 15.5
2006-12-19 08:51:19 51°10.391 2°39.322 250.7 13.7 247 15.7
2006-12-19 08:51:24 51°10.383 2°39.294 250.7 13.7 247 15.6
2006-12-19 08:51:29 51°10.376 2°39.266 250.5 13.8 247 15.7
2006-12-19 08:51:35 51°10.366 2°39.233 250.6 13.7 247 15.7
2006-12-19 08:51:40 51°10.358 2°39.205 250.4 13.8 246 15.8
2006-12-19 08:51:44 51°10.353 2°39.182 250.2 13.7 248 15.9
2006-12-19 08:51:49 51°10.344 2°39.155 250.4 13.8 245 15.8
2006-12-19 08:51:54 51°10.336 2°39.127 250 13.7 247 15.8
2006-12-19 08:52:00 51°10.327 2°39.094 250 13.7 246 16.3
2006-12-19 08:52:04 51°10.322 2°39.071 250.2 13.7 246 16.1
2006-12-19 08:52:09 51°10.314 2°39.044 249.8 13.7 245 16.4
2006-12-19 08:52:14 51°10.306 2°39.016 249.6 13.8 246 16
2006-12-19 08:52:20 51°10.296 2°38.983 249.9 13.7 247 16
2006-12-19 08:52:24 51°10.29 2°38.961 250 13.8 245 16
2006-12-19 08:52:30 51°10.281 2°38.928 249.6 13.7 247 16
2006-12-19 08:52:34 51°10.275 2°38.907 250.2 13.6 245 16.1
2006-12-19 08:52:40 51°10.265 2°38.874 249.6 13.8 246 16.1
2006-12-19 08:52:45 51°10.257 2°38.845 250.4 13.7 246 16.2
2006-12-19 08:52:49 51°10.251 2°38.823 250 13.7 245 16.2
2006-12-19 08:52:55 51°10.241 2°38.79 249.8 13.7 246 16.3
2006-12-19 08:52:59 51°10.235 2°38.768 250.2 13.6 246 16.2
2006-12-19 08:53:05 51°10.226 2°38.735 249.9 13.8 245 16.5
2006-12-19 08:53:09 51°10.22 2°38.713 250.2 13.7 247 16.5
2006-12-19 08:53:14 51°10.212 2°38.685 250.2 13.7 245 16.6
2006-12-19 08:53:19 51°10.205 2°38.657 249.7 13.7 247 16.5
2006-12-19 08:53:24 51°10.197 2°38.63 250.1 13.7 245 16.8
2006-12-19 08:53:30 51°10.188 2°38.596 249.9 13.6 247 16.2
2006-12-19 08:53:34 51°10.181 2°38.575 250 13.7 246 16.5
2006-12-19 08:53:40 51°10.172 2°38.542 250.2 13.7 246 16.6
2006-12-19 08:53:44 51°10.166 2°38.52 250.2 13.6 246 16.8
2006-12-19 08:53:49 51°10.158 2°38.492 250.2 13.7 246 16.8
2006-12-19 08:53:55 51°10.149 2°38.459 249.9 13.7 247 17
2006-12-19 08:54:00 51°10.141 2°38.431 250.4 13.7 245 17
2006-12-19 08:54:04 51°10.135 2°38.409 250.3 13.6 246 17
2006-12-19 08:54:09 51°10.128 2°38.382 249.9 13.7 245 17.1